Weather History for St. Joseph, MO

Change the Weather History Date:

Sunday, August 19, 2012

  Actual Average Record
Temperature  
Mean Temperature 67 °F 75 °F  
Max Temperature 81 °F 86 °F 107 °F (1936)
Min Temperature 53 °F 64 °F 48 °F (1967)
Degree Days  
Heating Degree Days 0 0  
Month to date heating degree days 4 0  
Since 1 June heating degree days 12 9  
Since 1 July heating degree days 4 1  
Cooling Degree Days 2 10  
Month to date cooling degree days 154 217  
Year to date cooling degree days 1324 971  
Since 1 June cooling degree days 1057 858  
Growing Degree Days 17 (Base 50)    
Moisture  
Dew Point 50 °F    
Average Humidity 60    
Maximum Humidity 89    
Minimum Humidity 30    
Precipitation  
Precipitation 0.00 in 0.14 in 3.71 in (2000)
Month to date precipitation 0.60 2.30  
Year to date precipitation 15.74 24.62  
Sea Level Pressure  
Sea Level Pressure 30.01 in    
Wind  
Wind Speed 6 mph (North)    
Max Wind Speed 16 mph    
Max Gust Speed 21 mph    
Visibility 10 miles    
Events      
T = Trace of Precipitation, MM = Missing Value Source: NWS Daily Summary

Daily Weather History Graph

Daily Weather History Graph

Search for Another Location

Airport:

Trip Planner

Search our weather history database for the weather conditions in past years. The results will help you decide how hot, cold, wet, or windy it might be!

Date:

Astronomy

Aug. 19, 2012 Rise Set
Actual Time 6:35 AM CDT 8:09 PM CDT
Civil Twilight 6:07 AM CDT 8:38 PM CDT
Nautical Twilight 5:32 AM CDT 9:12 PM CDT
Astronomical Twilight 4:56 AM CDT 9:48 PM CDT
Moon 8:51 AM CDT (8/19) 8:59 PM CDT (8/19)
Length of Visible Light 14h 30m
Length of Day
13h 33m
Waxing Crescent, 5% of the Moon is Illuminated
Aug 19
Waxing Crescent
Aug 24
First Quarter
Aug 31
Full
Sep 8
Last Quarter
Sep 15
New

Hourly Weather History & Observations

Time (CDT) Temp. Dew Point Humidity Pressure Visibility Wind Dir Wind Speed Gust Speed Precip Events Conditions
12:53 AM 60.1 °F 48.9 °F 67% 29.98 in 10.0 mi North 3.5 mph - N/A   Scattered Clouds
1:53 AM 60.1 °F 50.0 °F 69% 29.99 in 10.0 mi North 8.1 mph - N/A   Overcast
2:53 AM 60.1 °F 52.0 °F 75% 29.99 in 10.0 mi North 6.9 mph - N/A   Overcast
3:53 AM 57.9 °F 51.1 °F 78% 29.99 in 10.0 mi North 5.8 mph - N/A   Mostly Cloudy
4:53 AM 55.4 °F 51.8 °F 88% 30.01 in 10.0 mi North 3.5 mph - N/A   Overcast
5:53 AM 55.9 °F 52.0 °F 87% 30.01 in 10.0 mi North 3.5 mph - N/A   Overcast
6:53 AM 54.0 °F 50.0 °F 86% 30.04 in 10.0 mi North 5.8 mph - N/A   Scattered Clouds
7:53 AM 57.0 °F 52.0 °F 83% 30.05 in 10.0 mi North 4.6 mph - N/A   Partly Cloudy
8:53 AM 62.1 °F 52.0 °F 70% 30.06 in 10.0 mi North 6.9 mph - N/A   Clear
9:53 AM 69.1 °F 51.1 °F 53% 30.06 in 10.0 mi ENE 4.6 mph - N/A   Clear
10:53 AM 73.0 °F 52.0 °F 48% 30.06 in 10.0 mi Variable 5.8 mph - N/A   Clear
11:53 AM 75.0 °F 52.0 °F 44% 30.06 in 10.0 mi NNW 9.2 mph - N/A   Clear
12:53 PM 75.9 °F 50.0 °F 40% 30.04 in 10.0 mi North 9.2 mph - N/A   Clear
1:53 PM 78.1 °F 50.0 °F 37% 30.03 in 10.0 mi NNE 9.2 mph 19.6 mph N/A   Clear
2:53 PM 79.0 °F 50.0 °F 36% 30.01 in 10.0 mi NE 8.1 mph 20.7 mph N/A   Clear
3:53 PM 80.1 °F 48.9 °F 34% 29.99 in 10.0 mi North 9.2 mph 18.4 mph N/A   Partly Cloudy
4:53 PM 80.1 °F 46.9 °F 31% 29.98 in 10.0 mi NNW 12.7 mph - N/A   Clear
5:53 PM 79.0 °F 46.0 °F 31% 29.97 in 10.0 mi North 9.2 mph - N/A   Clear
6:53 PM 78.1 °F 46.9 °F 33% 29.97 in 10.0 mi North 8.1 mph - N/A   Clear
7:53 PM 70.0 °F 51.1 °F 51% 29.97 in 10.0 mi North 5.8 mph - N/A   Clear
8:53 PM 61.0 °F 52.0 °F 72% 29.99 in 10.0 mi NNW 5.8 mph - N/A   Clear
9:53 PM 59.0 °F 51.1 °F 75% 30.01 in 10.0 mi Calm Calm - N/A   Clear
10:53 PM 57.0 °F 51.1 °F 81% 30.02 in 10.0 mi Calm Calm - N/A   Clear
11:53 PM 55.0 °F 48.9 °F 80% 30.03 in 10.0 mi Calm Calm - N/A   Clear